Weather History for Anaktuvuk Pass, AK

Change the Weather History Date:

Thursday, February 6, 2014

  Actual Average Record
Temperature  
Mean Temperature 8 °F -  
Max Temperature 19 °F 0 °F 33 °F (2003)
Min Temperature -4 °F -11 °F -31 °F (2013)
Degree Days  
Heating Degree Days 58    
Moisture  
Dew Point -4 °F    
Average Humidity 68    
Maximum Humidity 85    
Minimum Humidity 50    
Precipitation  
Precipitation 0.00 in - - ()
Sea Level Pressure  
Sea Level Pressure 30.31 in    
Wind  
Wind Speed 15 mph (NW)    
Max Wind Speed 23 mph    
Max Gust Speed 39 mph    
Visibility 2 miles    
Events      
Averages and records for this station are not official NWS values.
T = Trace of Precipitation, MM = Missing Value Source: NWS Daily Summary

Daily Weather History Graph

Daily Weather History Graph

Search for Another Location

Airport:

Trip Planner

Search our weather history database for the weather conditions in past years. The results will help you decide how hot, cold, wet, or windy it might be!

Date:

Astronomy

Feb. 06, 2014 Rise Set
Actual Time 10:02 AM AKST 4:40 PM AKST
Civil Twilight 8:55 AM AKST 5:48 PM AKST
Nautical Twilight 7:46 AM AKST 6:57 PM AKST
Astronomical Twilight 6:41 AM AKST 8:01 PM AKST
Moon 10:03 AM AKST (2/6) 3:37 AM AKST (2/6)
Length of Visible Light 8h 53m
Length of Day
6h 37m
Waxing Crescent, 51% of the Moon is Illuminated
Feb 6
Waxing Crescent
Feb 14
Full
Feb 22
Last Quarter
Feb 28
New
Mar 8
First Quarter

Hourly Weather History & Observations

Time (AKST) Temp. Windchill Dew Point Humidity Pressure Visibility Wind Dir Wind Speed Gust Speed Precip Events Conditions
12:16 AM 10.4 °F -7.2 °F 5.0 °F 79% 30.33 in 2.5 mi South 17.3 mph - N/A   Overcast
12:36 AM 10.4 °F -6.0 °F 3.2 °F 73% 30.32 in 1.2 mi SW 15.0 mph 18.4 mph N/A   Overcast
12:56 AM 10.4 °F -5.4 °F 5.0 °F 79% 30.30 in 1.2 mi SW 13.8 mph 20.7 mph N/A   Overcast
1:16 AM 10.4 °F -6.6 °F 5.0 °F 79% 30.29 in 1.5 mi SW 16.1 mph 23.0 mph N/A   Overcast
1:36 AM 10.4 °F -6.6 °F 5.0 °F 79% 30.29 in 1.2 mi South 16.1 mph 20.7 mph N/A   Overcast
1:56 AM 10.4 °F -7.2 °F 5.0 °F 79% 30.28 in 1.5 mi South 17.3 mph - N/A   Overcast
2:16 AM 10.4 °F -8.6 °F 5.0 °F 79% 30.27 in 1.2 mi SSE 20.7 mph 27.6 mph N/A   Overcast
2:36 AM 10.4 °F -9.1 °F 3.2 °F 73% 30.26 in 1.5 mi South 21.9 mph 27.6 mph N/A   Overcast
2:56 AM 10.4 °F -9.1 °F 5.0 °F 79% 30.26 in 1.5 mi South 21.9 mph - N/A   Overcast
3:16 AM 10.4 °F -6.6 °F 3.2 °F 73% 30.23 in 2.5 mi South 16.1 mph - N/A   Overcast
3:36 AM 10.4 °F -6.6 °F 3.2 °F 73% 30.21 in 3.0 mi South 16.1 mph - N/A   Overcast
3:56 AM 10.4 °F -6.6 °F 3.2 °F 73% 30.21 in 3.0 mi SSW 16.1 mph 19.6 mph N/A   Overcast
4:16 AM 10.4 °F -6.0 °F 3.2 °F 73% 30.19 in 4.0 mi SW 15.0 mph - N/A   Overcast
4:36 AM 10.4 °F -6.6 °F 5.0 °F 79% 30.19 in 4.0 mi South 16.1 mph - N/A   Overcast
4:56 AM 10.4 °F -4.1 °F 3.2 °F 73% 30.20 in 9.0 mi SSE 11.5 mph - N/A   Overcast
5:16 AM 10.4 °F -0.4 °F 5.0 °F 79% 30.21 in 1.2 mi South 6.9 mph - N/A   Overcast
5:36 AM 10.4 °F 0.8 °F 5.0 °F 79% 30.19 in 1.0 mi SW 5.8 mph - N/A   Overcast
5:56 AM 10.4 °F -1.5 °F 5.0 °F 79% 30.18 in 1.0 mi SW 8.1 mph - N/A   Overcast
6:16 AM 10.4 °F -0.4 °F 5.0 °F 79% 30.16 in 1.8 mi South 6.9 mph - N/A   Overcast
6:36 AM 10.4 °F - 5.0 °F 79% 30.16 in 2.5 mi Calm Calm - N/A   Overcast
6:56 AM 10.4 °F 4.0 °F 6.8 °F 85% 30.15 in 3.0 mi SW 3.5 mph - N/A   Overcast
7:16 AM 17.6 °F 6.4 °F 10.4 °F 73% 30.15 in 2.0 mi NNW 9.2 mph - N/A   Overcast
7:36 AM 19.4 °F 2.8 °F 10.4 °F 68% 30.14 in 0.5 mi NNW 21.9 mph 33.4 mph N/A   Overcast
7:56 AM 17.6 °F 0.5 °F 8.6 °F 68% 30.15 in 0.5 mi NNW 21.9 mph 33.4 mph N/A   Overcast
8:16 AM 15.8 °F -0.6 °F 6.8 °F 68% 30.16 in 0.5 mi NNW 18.4 mph 33.4 mph N/A   Overcast
8:36 AM 15.8 °F 2.7 °F 6.8 °F 68% 30.16 in 0.8 mi North 11.5 mph 31.1 mph N/A   Overcast
8:56 AM 14.0 °F -1.4 °F 3.2 °F 62% 30.16 in 0.8 mi NNW 15.0 mph 25.3 mph N/A   Overcast
9:16 AM 12.2 °F -3.7 °F 3.2 °F 67% 30.16 in 0.8 mi NNW 15.0 mph 29.9 mph N/A   Overcast
9:36 AM 10.4 °F -7.2 °F 1.4 °F 67% 30.17 in 0.5 mi NNW 17.3 mph 29.9 mph N/A   Overcast
9:56 AM 8.6 °F -11.9 °F -0.4 °F 67% 30.17 in 0.2 mi NNW 23.0 mph 28.8 mph N/A   Overcast
10:16 AM 8.6 °F -8.9 °F -0.4 °F 67% 30.18 in 0.2 mi NW 16.1 mph 26.5 mph N/A   Overcast
10:36 AM 8.6 °F -8.3 °F -0.4 °F 67% 30.18 in 0.2 mi NW 15.0 mph 26.5 mph N/A   Overcast
10:56 AM 6.8 °F -11.3 °F -0.4 °F 72% 30.17 in 0.2 mi NW 16.1 mph 29.9 mph N/A   Overcast
11:16 AM 6.8 °F -12.9 °F -0.4 °F 72% 30.17 in 0.2 mi NW 19.6 mph 29.9 mph N/A   Overcast
11:36 AM 6.8 °F -13.8 °F -0.4 °F 72% 30.17 in 0.2 mi NW 21.9 mph 33.4 mph N/A   Overcast
11:56 AM 5.0 °F -14.2 °F -2.2 °F 72% 30.19 in 0.2 mi NNW 17.3 mph 39.1 mph N/A   Overcast
12:16 PM 3.2 °F -19.0 °F -4.0 °F 72% 30.22 in 0.2 mi NNW 23.0 mph 34.5 mph N/A   Overcast
12:36 PM 3.2 °F -15.3 °F -5.8 °F 66% 30.25 in 0.2 mi NNW 15.0 mph 25.3 mph N/A   Overcast
12:56 PM 3.2 °F -14.6 °F -5.8 °F 66% 30.25 in 0.2 mi North 13.8 mph 35.7 mph N/A   Overcast
1:16 PM 3.2 °F -15.3 °F -5.8 °F 66% 30.26 in 0.2 mi NW 15.0 mph 27.6 mph N/A   Overcast
1:36 PM 1.4 °F -16.1 °F -5.8 °F 72% 30.26 in 0.2 mi NW 12.7 mph 24.2 mph N/A   Overcast
1:56 PM 1.4 °F -17.6 °F -5.8 °F 72% 30.27 in 0.2 mi NW 15.0 mph 33.4 mph N/A   Overcast
2:16 PM 1.4 °F -16.9 °F -5.8 °F 72% 30.29 in 0.2 mi NNW 13.8 mph 28.8 mph N/A   Overcast
2:36 PM 1.4 °F -17.6 °F -5.8 °F 72% 30.30 in - NW 15.0 mph 26.5 mph N/A   Overcast
2:56 PM -0.4 °F -21.7 °F -7.6 °F 72% 30.31 in - NW 18.4 mph 31.1 mph N/A   Overcast
3:16 PM -0.4 °F -19.2 °F -7.6 °F 72% 30.33 in - NW 13.8 mph 26.5 mph N/A   Overcast
3:36 PM -0.4 °F -19.9 °F -7.6 °F 72% 30.36 in - NNW 15.0 mph 26.5 mph N/A   Overcast
3:56 PM -0.4 °F -19.2 °F -9.4 °F 66% 30.36 in - NNW 13.8 mph 24.2 mph N/A   Overcast
4:16 PM -0.4 °F -19.9 °F -9.4 °F 66% 30.37 in - NNW 15.0 mph 25.3 mph N/A   Overcast
4:36 PM -0.4 °F -22.3 °F -9.4 °F 66% 30.37 in - NNW 19.6 mph 28.8 mph N/A   Overcast
4:56 PM -2.2 °F -23.5 °F -9.4 °F 71% 30.39 in - NNW 17.3 mph 27.6 mph N/A   Overcast
5:16 PM -2.2 °F -22.9 °F -11.2 °F 66% 30.41 in - NW 16.1 mph 28.8 mph N/A   Overcast
5:36 PM -2.2 °F -19.9 °F -11.2 °F 66% 30.42 in - NW 11.5 mph 17.3 mph N/A   Overcast
5:56 PM -2.2 °F -18.0 °F -13.0 °F 60% 30.43 in 4.0 mi NNW 9.2 mph 17.3 mph N/A   Overcast
6:16 PM -2.2 °F -21.5 °F -14.8 °F 55% 30.44 in 5.0 mi North 13.8 mph 18.4 mph N/A   Overcast
6:36 PM -2.2 °F -18.0 °F -14.8 °F 55% 30.45 in 4.0 mi North 9.2 mph 19.6 mph N/A   Overcast
6:56 PM -2.2 °F -21.5 °F -14.8 °F 55% 30.46 in 3.0 mi North 13.8 mph 23.0 mph N/A   Overcast
7:16 PM -2.2 °F -21.5 °F -14.8 °F 55% 30.47 in 3.0 mi North 13.8 mph 21.9 mph N/A   Overcast
7:36 PM -2.2 °F -21.5 °F -14.8 °F 55% 30.49 in 3.0 mi North 13.8 mph 21.9 mph N/A   Overcast
7:56 PM -2.2 °F -22.9 °F -14.8 °F 55% 30.50 in 3.0 mi North 16.1 mph 21.9 mph N/A   Overcast
8:16 PM -2.2 °F -22.9 °F -14.8 °F 55% 30.50 in 4.0 mi North 16.1 mph 21.9 mph N/A   Overcast
8:36 PM -2.2 °F -20.7 °F -16.6 °F 50% 30.51 in 3.0 mi North 12.7 mph - N/A   Overcast
8:56 PM -2.2 °F -22.2 °F -16.6 °F 50% 30.52 in 4.0 mi North 15.0 mph 21.9 mph N/A   Overcast
9:16 PM -2.2 °F -19.9 °F -16.6 °F 50% 30.53 in 3.0 mi North 11.5 mph 20.7 mph N/A   Overcast
9:36 PM -4.0 °F -23.0 °F -16.6 °F 55% 30.54 in 5.0 mi North 12.7 mph 20.7 mph N/A   Overcast
9:56 PM -4.0 °F -23.0 °F -16.6 °F 55% 30.54 in 2.5 mi North 12.7 mph 20.7 mph N/A   Overcast
10:16 PM -2.2 °F -24.1 °F -16.6 °F 50% 30.54 in 3.0 mi North 18.4 mph 24.2 mph N/A   Overcast
10:36 PM -4.0 °F -25.8 °F -16.6 °F 55% 30.54 in 3.0 mi NNE 17.3 mph 26.5 mph N/A   Overcast
10:56 PM -4.0 °F -26.4 °F -16.6 °F 55% 30.54 in 3.0 mi NE 18.4 mph 25.3 mph N/A   Overcast
11:16 PM -4.0 °F -26.4 °F -16.6 °F 55% 30.55 in 2.5 mi NE 18.4 mph 27.6 mph N/A   Overcast
11:36 PM -4.0 °F -25.8 °F -14.8 °F 60% 30.56 in 2.5 mi NNE 17.3 mph 24.2 mph N/A   Overcast
11:56 PM -2.2 °F -22.9 °F -14.8 °F 55% 30.56 in 1.5 mi NE 16.1 mph 24.2 mph N/A   Overcast